EW1895 Weather Reports


Display with metric or nautical units.
time (UTC)temp
F
wind
direction
speed
MPH
gust
MPH
rain 1hr
in
rain 24hr
in
rain mn
in
humidity
%
barometer
mb
20260507093005 56 335 1.0 6.0 0.00 0.00 0.00 87 1011.7
20260507091502 56 329 0.0 3.0 0.00 0.00 0.00 89 1011.6
20260507090100 56 319 0.0 3.0 0.00 0.00 0.00 89 1011.3
20260507084557 57 319 0.0 4.0 0.00 0.00 0.00 89 1011.4
20260507083055 57 34 0.0 2.0 0.00 0.00 0.00 89 1011.3
20260507081557 57 339 0.0 5.0 0.00 0.00 0.00 89 1011.1
20260507080049 58 346 0.0 6.0 0.00 0.00 0.00 90 1011.1
20260507074546 59 5 0.0 5.0 0.00 0.00 0.00 90 1010.4
20260507073041 61 88 0.0 4.0 0.00 0.00 0.00 90 1010.4
20260507071538 63 262 1.0 4.0 0.00 0.00 0.00 91 1010.2
20260507070035 64 167 0.0 0.0 0.00 0.00 0.00 93 1010.1
20260507064532 65 167 0.0 0.0 0.00 0.00 0.00 92 1009.8
20260507063030 65 167 0.0 0.0 0.00 0.00 0.00 91 1009.3
20260507061530 65 167 0.0 0.0 0.00 0.00 0.00 90 1009.3
20260507060043 65 167 0.0 0.0 0.00 0.00 0.00 90 1008.9
20260507054538 66 167 0.0 0.0 0.00 0.00 0.00 89 1009.0
20260507053026 66 167 0.0 0.0 0.00 0.00 0.00 89 1008.9
20260507051528 66 167 0.0 0.0 0.00 0.00 0.00 89 1009.3
20260507050026 66 159 0.0 0.0 0.00 0.00 0.00 90 1009.6
20260507044544 65 159 0.0 0.0 0.00 0.00 0.00 90 1009.7
20260507043025 65 200 0.0 0.0 0.00 0.00 0.00 90 1010.1
20260507041524 65 200 0.0 0.0 0.00 0.00 0.00 90 1010.0
20260507040031 65 200 0.0 0.0 0.00 0.00 0.00 90 1009.8
20260507034523 65 200 0.0 0.0 0.00 0.00 0.00 90 1009.9
20260507033022 65 200 0.0 0.0 0.00 0.00 0.00 90 1010.2
20260507031521 65 200 0.0 0.0 0.00 0.00 0.00 90 1009.9
20260507030019 65 200 0.0 0.0 0.00 0.00 0.00 89 1009.9
20260507024519 65 200 0.0 0.0 0.00 0.00 0.00 89 1009.4
20260507023018 65 200 0.0 0.0 0.00 0.00 0.00 89 1009.7
20260507021520 66 200 0.0 0.0 0.00 0.00 0.00 88 1009.8
20260507020014 66 200 0.0 0.0 0.00 0.00 0.00 87 1010.0
20260507014514 66 200 0.0 0.0 0.00 0.00 0.00 87 1010.0
20260507013014 66 200 0.0 0.0 0.00 0.00 0.00 87 1010.1
20260507011512 66 200 0.0 0.0 0.00 0.00 0.00 87 1010.1
20260507010011 66 200 0.0 0.0 0.00 0.00 0.00 86 1009.9
20260507004509 66 200 0.0 0.0 0.00 0.00 0.00 86 1009.5
20260507003006 67 200 0.0 0.0 0.00 0.00 0.00 85 1009.9
20260507001512 67 139 0.0 1.0 0.00 0.00 0.00 83 1010.0
20260507000011 67 71 0.0 0.0 0.00 0.00 0.00 82 1009.8
20260506234504 68 80 0.0 0.0 0.00 0.00 0.00 82 1009.7
20260506233104 68 284 0.0 4.0 0.00 0.00 0.00 81 1009.5
20260506231559 69 261 0.0 1.0 0.00 0.00 0.00 80 1009.4
20260506230056 69 212 0.0 1.0 0.00 0.00 0.00 80 1009.2
20260506224603 70 248 0.0 2.0 0.00 0.00 0.00 79 1009.4
20260506223053 70 221 0.0 8.0 0.00 0.00 0.00 78 1009.5
20260506221554 70 242 0.0 5.0 0.00 0.00 0.00 78 1009.6
20260506220051 70 235 0.0 2.0 0.00 0.00 0.00 78 1009.5
20260506214606 70 290 0.0 2.0 0.00 0.00 0.00 77 1009.2
20260506213049 70 176 0.0 5.0 0.00 0.00 0.00 79 1009.7
20260506211649 70 19 0.0 3.0 0.00 0.00 0.00 77 1009.8
20260506210052 70 209 0.0 6.0 0.00 0.00 0.00 77 1009.6
20260506204556 71 209 0.0 5.0 0.00 0.00 0.00 77 1009.5
20260506203049 70 126 0.0 0.0 0.00 0.00 0.00 82 1009.5
20260506201542 68 118 0.0 2.0 0.00 0.00 0.00 83 1009.5
20260506200040 68 134 0.0 2.0 0.00 0.00 0.00 83 1009.4
20260506194553 68 130 0.0 1.0 0.00 0.00 0.00 83 1009.7
20260506193035 67 159 0.0 0.0 0.00 0.00 0.00 83 1009.6
20260506191535 67 175 0.0 2.0 0.00 0.00 0.00 85 1009.8
20260506190029 66 175 0.0 2.0 0.00 0.00 0.00 87 1010.2
20260506184530 65 180 0.0 2.0 0.00 0.00 0.00 86 1010.5
20260506183022 65 229 0.0 4.0 0.00 0.00 0.00 88 1010.5
20260506180036 65 263 1.0 5.0 0.00 0.00 0.00 87 1010.5
20260506174533 65 205 1.0 6.0 0.00 0.00 0.00 89 1010.9
20260506173030 64 221 1.0 5.0 0.00 0.00 0.00 90 1010.8
20260506171543 63 13 0.0 5.0 0.00 0.00 0.00 92 1010.9
20260506170037 63 169 1.0 6.0 0.00 0.00 0.00 91 1010.6
20260506164533 63 249 0.0 3.0 0.00 0.00 0.00 93 1011.1
20260506163029 63 133 1.0 7.0 0.00 0.00 0.00 93 1011.2
20260506161527 63 216 0.0 5.0 0.00 0.00 0.00 93 1011.5
20260506160026 62 120 0.0 5.0 0.00 0.00 0.00 93 1011.2
20260506154525 62 200 0.0 0.0 0.00 0.00 0.00 94 1011.1
20260506153023 61 200 0.0 3.0 0.00 0.00 0.00 94 1011.5
20260506151531 61 201 0.0 5.0 0.00 0.00 0.00 94 1011.5
20260506150023 61 214 0.0 0.0 0.00 0.00 0.00 93 1011.7
20260506144522 61 188 0.0 0.0 0.00 0.00 0.00 93 1012.2
20260506143021 61 215 0.0 3.0 0.00 0.00 0.00 92 1012.2
20260506141520 61 203 0.0 2.0 0.00 0.00 0.00 92 1012.0
20260506140026 61 249 0.0 3.0 0.00 0.00 0.00 92 1011.9
20260506134518 61 153 0.0 0.0 0.00 0.00 0.00 89 1012.0
20260506133036 62 130 0.0 2.0 0.00 0.00 0.00 88 1011.9
20260506131523 62 186 0.0 2.0 0.00 0.00 0.00 88 1011.8
20260506130017 62 238 0.0 2.0 0.00 0.00 0.00 88 1011.7
20260506124516 62 192 0.0 0.0 0.00 0.00 0.00 86 1011.7
20260506123013 63 136 0.0 1.0 0.00 0.00 0.00 82 1011.8
20260506121511 64 116 0.0 1.0 0.00 0.00 0.00 77 1011.5
20260506120018 64 155 0.0 2.0 0.00 0.00 0.00 75 1011.7
20260506114511 64 219 0.0 4.0 0.00 0.00 0.00 75 1011.6
20260506113011 64 263 1.0 5.0 0.00 0.00 0.00 74 1011.5
20260506111510 63 300 0.0 3.0 0.00 0.00 0.00 75 1011.5
20260506110009 63 116 0.0 1.0 0.00 0.00 0.00 75 1011.3
20260506104508 63 126 0.0 2.0 0.00 0.00 0.00 75 1011.3
20260506103009 63 234 0.0 2.0 0.00 0.00 0.00 75 1011.6
20260506101508 63 222 0.0 2.0 0.00 0.00 0.00 75 1011.5
20260506100014 63 207 0.0 4.0 0.00 0.00 0.00 76 1011.5
20260506094507 63 173 0.0 1.0 0.00 0.00 0.00 76 1011.5